ARG1786 SABE-SARI

Flight info

Callsign ARG1786
Flight time N/A
Altitude 35000
Route LANDA4B LANDA UN785 GEMSU UT667 DOKBA DOKBA3M
Aircraft B738/M-MSDFGHILRVWS/LB1

Departure

Time N/A
Airport Aeroparque Jorge Newbery (SABE)

Arrival

Time 2026-05-03 21:27
Airport Cataratas Del Iguazú International Airport (SARI)
Time Latitude Longitude Altitude Speed Heading
2026-05-03 20:15 -33.23571 -58.45746 27842 ft 477 kts
2026-05-03 20:15 -33.20326 -58.44866 28146 ft 479 kts
2026-05-03 20:15 -33.17056 -58.43980 28462 ft 482 kts
2026-05-03 20:15 -33.13772 -58.43091 28744 ft 485 kts
2026-05-03 20:16 -33.10474 -58.42199 29023 ft 488 kts
2026-05-03 20:16 -33.07148 -58.41300 29307 ft 491 kts
2026-05-03 20:16 -33.03795 -58.40394 29578 ft 493 kts
2026-05-03 20:16 -33.00432 -58.39486 29865 ft 496 kts
2026-05-03 20:17 -32.97050 -58.38573 30138 ft 498 kts
2026-05-03 20:17 -32.93662 -58.37661 30353 ft 501 kts
2026-05-03 20:17 -32.90260 -58.36744 30631 ft 502 kts
2026-05-03 20:17 -32.86894 -58.35837 30999 ft 500 kts
2026-05-03 20:18 -32.83516 -58.34927 31405 ft 497 kts
2026-05-03 20:18 -32.80136 -58.34018 31743 ft 497 kts
2026-05-03 20:18 -32.76751 -58.33109 32022 ft 498 kts
2026-05-03 20:18 -32.73368 -58.32202 32310 ft 498 kts
2026-05-03 20:19 -32.69990 -58.31297 32650 ft 496 kts
2026-05-03 20:19 -32.66627 -58.30397 32996 ft 495 kts
2026-05-03 20:19 -32.63254 -58.29494 33274 ft 495 kts
2026-05-03 20:19 -32.59940 -58.28608 33550 ft 495 kts
2026-05-03 20:20 -32.56576 -58.27709 33851 ft 494 kts
2026-05-03 20:20 -32.53225 -58.26815 34158 ft 494 kts
2026-05-03 20:20 -32.49873 -58.25920 34436 ft 492 kts
2026-05-03 20:20 -32.46535 -58.25030 34724 ft 491 kts
2026-05-03 20:21 -32.43204 -58.24143 34974 ft 490 kts
2026-05-03 20:21 -32.39865 -58.23255 35127 ft 491 kts
2026-05-03 20:21 -32.36505 -58.22363 35123 ft 495 kts
2026-05-03 20:22 -32.29811 -58.20586 35134 ft 495 kts
2026-05-03 20:22 -32.23120 -58.18808 35122 ft 489 kts
2026-05-03 20:23 -32.16470 -58.17045 35137 ft 488 kts
2026-05-03 20:23 -32.09839 -58.15293 35136 ft 487 kts
2026-05-03 20:24 -32.03222 -58.13547 35140 ft 487 kts
2026-05-03 20:24 -31.96654 -58.11815 35138 ft 487 kts
2026-05-03 20:25 -31.90022 -58.10069 35123 ft 488 kts
2026-05-03 20:25 -31.83379 -58.08323 35137 ft 489 kts
2026-05-03 20:26 -31.76730 -58.06578 35130 ft 490 kts
2026-05-03 20:26 -31.70081 -58.04835 35142 ft 490 kts
2026-05-03 20:27 -31.63425 -58.03093 35107 ft 491 kts
2026-05-03 20:27 -31.56769 -58.01353 35112 ft 492 kts
2026-05-03 20:28 -31.50081 -57.99608 35105 ft 492 kts
2026-05-03 20:28 -31.43394 -57.97865 35100 ft 493 kts
2026-05-03 20:29 -31.36693 -57.96121 35088 ft 492 kts
2026-05-03 20:29 -31.29993 -57.94379 35099 ft 492 kts
2026-05-03 20:30 -31.23337 -57.92653 35097 ft 492 kts
2026-05-03 20:30 -31.16662 -57.90923 35116 ft 491 kts
2026-05-03 20:31 -31.09990 -57.89196 35112 ft 489 kts
2026-05-03 20:31 -31.03336 -57.87477 35121 ft 488 kts
2026-05-03 20:32 -30.96758 -57.85780 35130 ft 487 kts
2026-05-03 20:32 -30.90140 -57.84075 35127 ft 486 kts
2026-05-03 20:33 -30.83537 -57.82377 35127 ft 485 kts
2026-05-03 20:33 -30.76941 -57.80682 35126 ft 484 kts
2026-05-03 20:34 -30.70369 -57.78996 35130 ft 484 kts
2026-05-03 20:34 -30.63824 -57.76949 35144 ft 487 kts 12°
2026-05-03 20:35 -30.57342 -57.74594 35129 ft 488 kts 12°
2026-05-03 20:35 -30.50893 -57.72280 35132 ft 488 kts 12°
2026-05-03 20:36 -30.44389 -57.70002 35126 ft 489 kts 11°
2026-05-03 20:36 -30.37872 -57.67734 35130 ft 489 kts 11°
2026-05-03 20:37 -30.31337 -57.65459 35122 ft 489 kts 11°
2026-05-03 20:37 -30.24996 -57.62605 35122 ft 499 kts 26°
2026-05-03 20:38 -30.19178 -57.58060 35123 ft 502 kts 31°
2026-05-03 20:38 -30.13516 -57.53430 35125 ft 501 kts 31°
2026-05-03 20:39 -30.07795 -57.48818 35126 ft 501 kts 31°
2026-05-03 20:39 -30.02066 -57.44262 35123 ft 499 kts 30°
2026-05-03 20:40 -29.96328 -57.39721 35125 ft 499 kts 30°
2026-05-03 20:40 -29.90602 -57.35194 35129 ft 498 kts 30°
2026-05-03 20:41 -29.84881 -57.30674 35113 ft 498 kts 30°
2026-05-03 20:41 -29.79160 -57.26160 35123 ft 497 kts 30°
2026-05-03 20:42 -29.73457 -57.21665 35107 ft 497 kts 29°
2026-05-03 20:42 -29.67787 -57.17204 35100 ft 496 kts 29°
2026-05-03 20:43 -29.62084 -57.12722 35109 ft 496 kts 29°
2026-05-03 20:43 -29.56372 -57.08240 35107 ft 497 kts 29°
2026-05-03 20:44 -29.50657 -57.03762 35118 ft 497 kts 29°
2026-05-03 20:44 -29.44933 -56.99283 35113 ft 497 kts 29°
2026-05-03 20:45 -29.39210 -56.94811 35114 ft 498 kts 29°
2026-05-03 20:45 -29.33523 -56.90373 35110 ft 498 kts 29°
2026-05-03 20:46 -29.27788 -56.85903 35108 ft 498 kts 29°
2026-05-03 20:46 -29.22062 -56.81447 35116 ft 498 kts 28°
2026-05-03 20:47 -29.16323 -56.76987 35107 ft 498 kts 28°
2026-05-03 20:47 -29.10587 -56.72535 35099 ft 498 kts 28°
2026-05-03 20:48 -29.04846 -56.68085 35105 ft 498 kts 28°
2026-05-03 20:48 -28.99119 -56.63652 35102 ft 498 kts 28°
2026-05-03 20:49 -28.93371 -56.59208 35112 ft 498 kts 28°
2026-05-03 20:49 -28.87629 -56.54776 35108 ft 498 kts 28°
2026-05-03 20:50 -28.81875 -56.50343 35068 ft 498 kts 28°
2026-05-03 20:50 -28.76156 -56.45944 35086 ft 498 kts 28°
2026-05-03 20:51 -28.70405 -56.41524 35094 ft 498 kts 28°
2026-05-03 20:51 -28.64652 -56.37108 35099 ft 498 kts 28°
2026-05-03 20:52 -28.58897 -56.32697 35094 ft 498 kts 28°
2026-05-03 20:52 -28.53137 -56.28286 35099 ft 499 kts 27°
2026-05-03 20:53 -28.47405 -56.23904 35085 ft 499 kts 27°
2026-05-03 20:53 -28.41666 -56.19522 35094 ft 499 kts 27°
2026-05-03 20:54 -28.36827 -56.15832 35097 ft 499 kts 27°
2026-05-03 20:54 -28.27227 -56.08523 35091 ft 500 kts 27°
2026-05-03 20:55 -28.22388 -56.04845 35085 ft 500 kts 27°
2026-05-03 20:55 -28.16642 -56.00482 35083 ft 499 kts 27°
2026-05-03 20:56 -28.10825 -55.96072 35088 ft 500 kts 27°
2026-05-03 20:56 -28.05039 -55.91692 35082 ft 500 kts 27°
2026-05-03 20:57 -27.99243 -55.87309 35083 ft 500 kts 27°
2026-05-03 20:57 -27.93488 -55.82963 35082 ft 501 kts 27°
2026-05-03 20:58 -27.87683 -55.78585 35067 ft 501 kts 27°
2026-05-03 20:58 -27.81834 -55.74179 35081 ft 501 kts 27°
2026-05-03 20:59 -27.76058 -55.69833 35080 ft 501 kts 27°
2026-05-03 20:59 -27.70250 -55.65469 35084 ft 501 kts 27°
2026-05-03 21:00 -27.65488 -55.61888 35054 ft 484 kts 27°
2026-05-03 21:00 -27.61811 -55.59125 35061 ft 465 kts 26°
2026-05-03 21:00 -27.59138 -55.57122 34941 ft 456 kts 26°
2026-05-03 21:01 -27.56509 -55.55154 34596 ft 452 kts 26°
2026-05-03 21:01 -27.53887 -55.53197 33943 ft 457 kts 26°
2026-05-03 21:01 -27.51213 -55.51212 32760 ft 474 kts 27°
2026-05-03 21:01 -27.48434 -55.49148 31990 ft 481 kts 27°
2026-05-03 21:02 -27.45648 -55.47067 31609 ft 477 kts 27°
2026-05-03 21:02 -27.42902 -55.45008 31352 ft 469 kts 27°
2026-05-03 21:02 -27.40199 -55.42982 31030 ft 464 kts 27°
2026-05-03 21:02 -27.37518 -55.40978 30623 ft 462 kts 27°
2026-05-03 21:03 -27.34844 -55.38984 30204 ft 460 kts 27°
2026-05-03 21:03 -27.32179 -55.36999 29759 ft 457 kts 27°
2026-05-03 21:03 -27.29559 -55.35049 29353 ft 453 kts 27°
2026-05-03 21:03 -27.26950 -55.33108 28951 ft 448 kts 27°
2026-05-03 21:04 -27.24360 -55.31181 28498 ft 445 kts 27°
2026-05-03 21:04 -27.21744 -55.29238 28079 ft 442 kts 27°
2026-05-03 21:04 -27.19191 -55.27342 27671 ft 438 kts 27°
2026-05-03 21:04 -27.16657 -55.25462 27281 ft 435 kts 27°
2026-05-03 21:05 -27.14134 -55.23590 26901 ft 431 kts 27°
2026-05-03 21:05 -27.11640 -55.21740 26522 ft 428 kts 27°
2026-05-03 21:05 -27.09153 -55.19898 26145 ft 425 kts 28°
2026-05-03 21:05 -27.06696 -55.18078 25763 ft 422 kts 28°
2026-05-03 21:06 -27.04253 -55.16270 25408 ft 419 kts 28°
2026-05-03 21:06 -27.01830 -55.14477 25052 ft 416 kts 28°
2026-05-03 21:06 -26.99420 -55.12695 24693 ft 413 kts 28°
2026-05-03 21:06 -26.97048 -55.10942 24341 ft 410 kts 28°
2026-05-03 21:07 -26.94650 -55.09171 23984 ft 407 kts 28°
2026-05-03 21:07 -26.92291 -55.07429 23618 ft 405 kts 28°
2026-05-03 21:07 -26.89973 -55.05719 23218 ft 403 kts 28°
2026-05-03 21:07 -26.87619 -55.03984 22488 ft 408 kts 28°
2026-05-03 21:08 -26.85215 -55.02217 21672 ft 417 kts 29°
2026-05-03 21:08 -26.82784 -55.00428 21142 ft 417 kts 29°
2026-05-03 21:08 -26.80373 -54.98649 20797 ft 411 kts 29°
2026-05-03 21:08 -26.78005 -54.96902 20439 ft 406 kts 29°
2026-05-03 21:09 -26.75646 -54.95164 20028 ft 403 kts 29°
2026-05-03 21:09 -26.73337 -54.93465 19603 ft 401 kts 29°
2026-05-03 21:09 -26.71007 -54.91753 19208 ft 398 kts 29°
2026-05-03 21:09 -26.68696 -54.90056 18826 ft 395 kts 29°
2026-05-03 21:10 -26.66404 -54.88372 18453 ft 392 kts 29°
2026-05-03 21:10 -26.64137 -54.86708 18042 ft 389 kts 29°
2026-05-03 21:10 -26.61872 -54.85046 17615 ft 386 kts 29°
2026-05-03 21:10 -26.59630 -54.83403 17195 ft 383 kts 29°
2026-05-03 21:11 -26.57371 -54.81888 16811 ft 375 kts 18°
2026-05-03 21:11 -26.54895 -54.81217 16431 ft 361 kts
2026-05-03 21:11 -26.52407 -54.80948 16102 ft 356 kts
2026-05-03 21:11 -26.49946 -54.80718 15693 ft 354 kts
2026-05-03 21:12 -26.47524 -54.80493 15313 ft 351 kts
2026-05-03 21:12 -26.45097 -54.80259 14968 ft 347 kts
2026-05-03 21:12 -26.42706 -54.80020 14613 ft 344 kts
2026-05-03 21:12 -26.40330 -54.79776 14256 ft 341 kts
2026-05-03 21:13 -26.37972 -54.79531 13905 ft 338 kts
2026-05-03 21:13 -26.35633 -54.79286 13502 ft 336 kts
2026-05-03 21:13 -26.33316 -54.79042 13066 ft 334 kts
2026-05-03 21:13 -26.31002 -54.78799 12634 ft 333 kts
2026-05-03 21:14 -26.28700 -54.78557 12205 ft 332 kts
2026-05-03 21:14 -26.26406 -54.78315 11806 ft 330 kts
2026-05-03 21:14 -26.24118 -54.78074 11400 ft 329 kts
2026-05-03 21:14 -26.21842 -54.77835 10997 ft 328 kts
2026-05-03 21:15 -26.19567 -54.77605 10602 ft 327 kts
2026-05-03 21:15 -26.17305 -54.77437 10211 ft 325 kts
2026-05-03 21:15 -26.15087 -54.77295 9954 ft 312 kts
2026-05-03 21:15 -26.12988 -54.77165 9686 ft 299 kts
2026-05-03 21:16 -26.10943 -54.77037 9423 ft 291 kts
2026-05-03 21:16 -26.08940 -54.76910 9167 ft 284 kts
2026-05-03 21:16 -26.06981 -54.76785 8921 ft 281 kts
2026-05-03 21:16 -26.05034 -54.76659 8674 ft 277 kts
2026-05-03 21:17 -26.03115 -54.76535 8426 ft 274 kts
2026-05-03 21:17 -26.01857 -54.76453 8262 ft 273 kts
2026-05-03 21:17 -25.99358 -54.76289 7941 ft 268 kts
2026-05-03 21:17 -25.97498 -54.76166 7697 ft 266 kts
2026-05-03 21:18 -25.95656 -54.76045 7460 ft 264 kts
2026-05-03 21:18 -25.93830 -54.75924 7219 ft 262 kts
2026-05-03 21:18 -25.92020 -54.75805 6984 ft 259 kts
2026-05-03 21:18 -25.90227 -54.75687 6746 ft 258 kts
2026-05-03 21:19 -25.88445 -54.75569 6521 ft 256 kts
2026-05-03 21:19 -25.86667 -54.75452 6269 ft 254 kts
2026-05-03 21:19 -25.84906 -54.75335 6018 ft 253 kts
2026-05-03 21:19 -25.83144 -54.75219 5763 ft 253 kts
2026-05-03 21:20 -25.81390 -54.75103 5525 ft 252 kts
2026-05-03 21:20 -25.79639 -54.74988 5281 ft 252 kts
2026-05-03 21:20 -25.77892 -54.74873 5040 ft 252 kts
2026-05-03 21:20 -25.76139 -54.74757 4800 ft 251 kts
2026-05-03 21:21 -25.74425 -54.74644 4551 ft 250 kts
2026-05-03 21:21 -25.72696 -54.74530 4399 ft 243 kts
2026-05-03 21:21 -25.71052 -54.74405 4389 ft 231 kts
2026-05-03 21:21 -25.69631 -54.73715 4342 ft 221 kts 41°
2026-05-03 21:22 -25.68671 -54.72436 4354 ft 218 kts 60°
2026-05-03 21:22 -25.68065 -54.70902 4365 ft 217 kts 65°
2026-05-03 21:22 -25.67483 -54.69329 4362 ft 221 kts 65°
2026-05-03 21:22 -25.66887 -54.67735 4347 ft 226 kts 65°
2026-05-03 21:23 -25.66345 -54.66059 4051 ft 235 kts 80°
2026-05-03 21:23 -25.66609 -54.64287 3811 ft 237 kts 115°
2026-05-03 21:23 -25.67348 -54.62709 3623 ft 231 kts 112°
2026-05-03 21:23 -25.68004 -54.61101 3400 ft 225 kts 112°
2026-05-03 21:24 -25.68646 -54.59531 3029 ft 220 kts 112°
2026-05-03 21:24 -25.69270 -54.58028 2734 ft 208 kts 113°
2026-05-03 21:24 -25.69852 -54.56632 2477 ft 194 kts 113°
2026-05-03 21:24 -25.70399 -54.55319 2207 ft 182 kts 113°
2026-05-03 21:25 -25.70909 -54.54096 1975 ft 169 kts 113°
2026-05-03 21:25 -25.71390 -54.52943 1750 ft 160 kts 114°
2026-05-03 21:25 -25.71850 -54.51839 1589 ft 159 kts 114°
2026-05-03 21:25 -25.72307 -54.50745 1358 ft 157 kts 114°
2026-05-03 21:26 -25.72762 -54.49639 1131 ft 158 kts 115°
2026-05-03 21:26 -25.73234 -54.48526 939 ft 158 kts 115°
2026-05-03 21:26 -25.73661 -54.47507 927 ft 127 kts 115°
2026-05-03 21:26 -25.73965 -54.46778 928 ft 78 kts 115°
2026-05-03 21:27 -25.74150 -54.46335 926 ft 53 kts 115°
2026-05-03 21:27 -25.74270 -54.46051 926 ft 23 kts 114°
2026-05-03 21:27 -25.74304 -54.45902 929 ft 13 kts 76°
2026-05-03 21:27 -25.74328 -54.45913 928 ft 10 kts 291°
2026-05-03 21:28 -25.74293 -54.45998 929 ft 16 kts 295°
2026-05-03 21:28 -25.74240 -54.46126 928 ft 21 kts 295°
2026-05-03 21:28 -25.74170 -54.46293 927 ft 26 kts 295°
2026-05-03 21:28 -25.74087 -54.46491 926 ft 31 kts 295°
2026-05-03 21:29 -25.73991 -54.46716 929 ft 33 kts 295°
2026-05-03 21:29 -25.73892 -54.46954 930 ft 35 kts 294°
2026-05-03 21:29 -25.73792 -54.47188 928 ft 33 kts 301°
2026-05-03 21:29 -25.73672 -54.47317 928 ft 22 kts 324°
2026-05-03 21:30 -25.73575 -54.47394 927 ft 14 kts 324°
2026-05-03 21:30 -25.73499 -54.47454 928 ft 13 kts 324°
2026-05-03 21:30 -25.73426 -54.47512 927 ft 13 kts 324°
2026-05-03 21:30 -25.73354 -54.47568 928 ft 12 kts 324°
2026-05-03 21:31 -25.73296 -54.47635 926 ft 12 kts 296°
2026-05-03 21:31 -25.73264 -54.47709 928 ft 10 kts 295°
2026-05-03 21:31 -25.73241 -54.47764 926 ft 5 kts 300°
2026-05-03 21:31 -25.73210 -54.47761 930 ft 5 kts 23°
2026-05-03 21:32 -25.73194 -54.47753 926 ft 2 kts 24°
2026-05-03 21:32 -25.73189 -54.47751 926 ft 0 kts 24°